SWA4622 KLBB-KDAL

Flight info

Callsign SWA4622
Flight time 0h 43m
Altitude 33000
Route HNKER JFRYE5
Aircraft B737/M-SDE2E3FGHIRWXY/LB1

Departure

Time 2026-05-05 20:28
Airport Lubbock Preston Smith International Airport (KLBB)

Arrival

Time 2026-05-05 21:12
Airport Dallas Love Field (KDAL)
Time Latitude Longitude Altitude Speed Heading
2026-05-05 19:58 33.65743 -101.82072 3260 ft 0 kts 181°
2026-05-05 20:20 33.65745 -101.82072 3259 ft 2 kts 181°
2026-05-05 20:20 33.65761 -101.82071 3259 ft 2 kts 181°
2026-05-05 20:20 33.65776 -101.82071 3259 ft 2 kts 181°
2026-05-05 20:20 33.65792 -101.82070 3259 ft 2 kts 198°
2026-05-05 20:21 33.65807 -101.82059 3260 ft 2 kts 231°
2026-05-05 20:21 33.65814 -101.82040 3260 ft 0 kts 264°
2026-05-05 20:21 33.65814 -101.82031 3260 ft 0 kts 269°
2026-05-05 20:24 33.65814 -101.82042 3260 ft 4 kts 269°
2026-05-05 20:24 33.65813 -101.82089 3259 ft 5 kts 269°
2026-05-05 20:24 33.65812 -101.82154 3259 ft 10 kts 268°
2026-05-05 20:24 33.65786 -101.82280 3258 ft 15 kts 242°
2026-05-05 20:25 33.65710 -101.82381 3257 ft 10 kts 232°
2026-05-05 20:25 33.65727 -101.82470 3256 ft 11 kts 299°
2026-05-05 20:25 33.65766 -101.82568 3255 ft 12 kts 284°
2026-05-05 20:25 33.65760 -101.82683 3255 ft 12 kts 216°
2026-05-05 20:26 33.65655 -101.82690 3254 ft 19 kts 180°
2026-05-05 20:26 33.65502 -101.82689 3252 ft 21 kts 180°
2026-05-05 20:26 33.65336 -101.82688 3250 ft 23 kts 180°
2026-05-05 20:26 33.65171 -101.82687 3248 ft 21 kts 179°
2026-05-05 20:27 33.65089 -101.82719 3247 ft 10 kts 256°
2026-05-05 20:27 33.65089 -101.82813 3247 ft 11 kts 269°
2026-05-05 20:27 33.65102 -101.82883 3247 ft 6 kts 344°
2026-05-05 20:27 33.65239 -101.82884 3248 ft 47 kts 359°
2026-05-05 20:28 33.65810 -101.82886 3254 ft 110 kts 359°
2026-05-05 20:28 33.66784 -101.82893 3263 ft 161 kts 359°
2026-05-05 20:28 33.67959 -101.82903 3785 ft 163 kts 358°
2026-05-05 20:28 33.69153 -101.82668 4204 ft 182 kts 25°
2026-05-05 20:29 33.70070 -101.81511 4696 ft 195 kts 65°
2026-05-05 20:29 33.70472 -101.79867 5156 ft 207 kts 76°
2026-05-05 20:29 33.70821 -101.77975 5564 ft 225 kts 80°
2026-05-05 20:29 33.71005 -101.75925 5998 ft 240 kts 87°
2026-05-05 20:30 33.71081 -101.73711 6431 ft 259 kts 89°
2026-05-05 20:30 33.71167 -101.71378 6955 ft 274 kts 88°
2026-05-05 20:30 33.71287 -101.68888 7497 ft 289 kts 88°
2026-05-05 20:30 33.71426 -101.66295 8042 ft 302 kts 87°
2026-05-05 20:31 33.71571 -101.63612 8644 ft 313 kts 88°
2026-05-05 20:31 33.71721 -101.60811 9339 ft 320 kts 88°
2026-05-05 20:31 33.71875 -101.57885 10155 ft 323 kts 89°
2026-05-05 20:31 33.72030 -101.54884 10647 ft 339 kts 89°
2026-05-05 20:32 33.72195 -101.51643 11147 ft 354 kts 89°
2026-05-05 20:32 33.72368 -101.48233 11590 ft 371 kts 89°
2026-05-05 20:32 33.72548 -101.44683 12016 ft 388 kts 89°
2026-05-05 20:32 33.72731 -101.41032 12335 ft 408 kts 89°
2026-05-05 20:33 33.72914 -101.37399 12824 ft 419 kts 89°
2026-05-05 20:33 33.73112 -101.33509 13462 ft 426 kts 89°
2026-05-05 20:33 33.73304 -101.29743 14093 ft 432 kts 90°
2026-05-05 20:33 33.73488 -101.26084 14682 ft 438 kts 90°
2026-05-05 20:34 33.73671 -101.22379 15293 ft 445 kts 90°
2026-05-05 20:34 33.73857 -101.18621 15918 ft 450 kts 90°
2026-05-05 20:34 33.74048 -101.14693 16480 ft 457 kts 90°
2026-05-05 20:34 33.74235 -101.10796 17042 ft 463 kts 90°
2026-05-05 20:35 33.74420 -101.06908 17659 ft 467 kts 90°
2026-05-05 20:35 33.74606 -101.02937 18142 ft 474 kts 90°
2026-05-05 20:35 33.74793 -100.98912 18693 ft 479 kts 90°
2026-05-05 20:35 33.74979 -100.94897 19240 ft 483 kts 90°
2026-05-05 20:36 33.75167 -100.90817 19611 ft 492 kts 90°
2026-05-05 20:36 33.75357 -100.86734 20148 ft 496 kts 90°
2026-05-05 20:36 33.75548 -100.82596 20651 ft 500 kts 90°
2026-05-05 20:36 33.75743 -100.78371 21083 ft 507 kts 89°
2026-05-05 20:37 33.75936 -100.74135 21602 ft 510 kts 89°
2026-05-05 20:37 33.76125 -100.69927 21978 ft 516 kts 89°
2026-05-05 20:37 33.76318 -100.65551 22417 ft 521 kts 89°
2026-05-05 20:37 33.76509 -100.61198 22856 ft 525 kts 89°
2026-05-05 20:38 33.76701 -100.56818 23358 ft 528 kts 90°
2026-05-05 20:38 33.76891 -100.52467 23797 ft 531 kts 89°
2026-05-05 20:38 33.77082 -100.48048 24316 ft 533 kts 89°
2026-05-05 20:38 33.77274 -100.43579 24879 ft 533 kts 89°
2026-05-05 20:39 33.77511 -100.39180 25415 ft 534 kts 88°
2026-05-05 20:39 33.77918 -100.34719 26081 ft 533 kts 84°
2026-05-05 20:39 33.78586 -100.30255 26717 ft 531 kts 80°
2026-05-05 20:39 33.79420 -100.25933 27335 ft 527 kts 77°
2026-05-05 20:40 33.80345 -100.21706 27874 ft 525 kts 76°
2026-05-05 20:40 33.81348 -100.17417 28347 ft 525 kts 74°
2026-05-05 20:40 33.82403 -100.13010 28571 ft 531 kts 74°
2026-05-05 20:40 33.83495 -100.08455 28935 ft 533 kts 75°
2026-05-05 20:41 33.84594 -100.03831 29331 ft 535 kts 74°
2026-05-05 20:41 33.85715 -99.99049 29807 ft 535 kts 75°
2026-05-05 20:41 33.86805 -99.94333 30256 ft 535 kts 75°
2026-05-05 20:41 33.87795 -99.89998 30638 ft 536 kts 75°
2026-05-05 20:42 33.88816 -99.85491 31015 ft 537 kts 75°
2026-05-05 20:42 33.89849 -99.80911 31433 ft 537 kts 75°
2026-05-05 20:42 33.90849 -99.76457 31847 ft 536 kts 74°
2026-05-05 20:42 33.91824 -99.72111 32231 ft 537 kts 75°
2026-05-05 20:43 33.92795 -99.67771 32569 ft 538 kts 75°
2026-05-05 20:43 33.93756 -99.63462 32771 ft 543 kts 75°
2026-05-05 20:43 33.94739 -99.59055 32850 ft 545 kts 74°
2026-05-05 20:44 33.96677 -99.50320 32840 ft 540 kts 74°
2026-05-05 20:44 33.98636 -99.41492 32844 ft 551 kts 75°
2026-05-05 20:45 34.00831 -99.27983 32839 ft 547 kts 92°
2026-05-05 20:45 34.00637 -99.23408 32836 ft 541 kts 103°
2026-05-05 20:45 33.99925 -99.18955 32830 ft 535 kts 111°
2026-05-05 20:46 33.97752 -99.10461 32838 ft 529 kts 117°
2026-05-05 20:46 33.95179 -99.02202 32828 ft 529 kts 120°
2026-05-05 20:47 33.92506 -98.93975 32816 ft 527 kts 120°
2026-05-05 20:47 33.89865 -98.85799 32311 ft 518 kts 119°
2026-05-05 20:48 33.88576 -98.81780 31698 ft 516 kts 118°
2026-05-05 20:48 33.87278 -98.77721 30974 ft 516 kts 118°
2026-05-05 20:48 33.85988 -98.73682 30200 ft 518 kts 118°
2026-05-05 20:48 33.84706 -98.69655 29386 ft 519 kts 117°
2026-05-05 20:49 33.83414 -98.65599 28645 ft 517 kts 117°
2026-05-05 20:49 33.82143 -98.61597 28141 ft 510 kts 117°
2026-05-05 20:49 33.80906 -98.57703 27628 ft 503 kts 117°
2026-05-05 20:49 33.79653 -98.53762 27068 ft 498 kts 117°
2026-05-05 20:50 33.78408 -98.49842 26523 ft 492 kts 117°
2026-05-05 20:50 33.77156 -98.45913 25958 ft 487 kts 116°
2026-05-05 20:50 33.75888 -98.41927 25424 ft 481 kts 116°
2026-05-05 20:50 33.74678 -98.38126 24830 ft 477 kts 117°
2026-05-05 20:51 33.73513 -98.34472 24284 ft 473 kts 117°
2026-05-05 20:51 33.72335 -98.30779 23735 ft 467 kts 117°
2026-05-05 20:51 33.71174 -98.27139 23187 ft 462 kts 116°
2026-05-05 20:51 33.70034 -98.23572 22657 ft 457 kts 116°
2026-05-05 20:52 33.68901 -98.20029 22131 ft 452 kts 117°
2026-05-05 20:52 33.67774 -98.16517 21600 ft 448 kts 117°
2026-05-05 20:52 33.66653 -98.13026 21091 ft 443 kts 117°
2026-05-05 20:52 33.65552 -98.09600 20706 ft 435 kts 117°
2026-05-05 20:53 33.64479 -98.06260 20239 ft 430 kts 117°
2026-05-05 20:53 33.63398 -98.02900 19723 ft 426 kts 117°
2026-05-05 20:53 33.62307 -97.99520 19190 ft 422 kts 117°
2026-05-05 20:53 33.61237 -97.96210 18676 ft 419 kts 118°
2026-05-05 20:54 33.60153 -97.92858 18128 ft 415 kts 117°
2026-05-05 20:54 33.59076 -97.89531 17567 ft 413 kts 117°
2026-05-05 20:54 33.58024 -97.86276 17108 ft 406 kts 118°
2026-05-05 20:54 33.57003 -97.83125 16543 ft 404 kts 118°
2026-05-05 20:55 33.55990 -97.80003 16016 ft 400 kts 117°
2026-05-05 20:55 33.54985 -97.76911 15485 ft 396 kts 118°
2026-05-05 20:55 33.53987 -97.73847 14996 ft 392 kts 117°
2026-05-05 20:55 33.53009 -97.70847 14501 ft 388 kts 117°
2026-05-05 20:56 33.52027 -97.67836 13992 ft 385 kts 117°
2026-05-05 20:56 33.51064 -97.64883 13500 ft 381 kts 117°
2026-05-05 20:56 33.50098 -97.61923 13003 ft 378 kts 117°
2026-05-05 20:56 33.49153 -97.59031 12494 ft 374 kts 117°
2026-05-05 20:57 33.48203 -97.56132 12025 ft 370 kts 117°
2026-05-05 20:57 33.47266 -97.53282 11580 ft 366 kts 116°
2026-05-05 20:57 33.46346 -97.50475 11251 ft 357 kts 116°
2026-05-05 20:57 33.45454 -97.47646 11090 ft 344 kts 112°
2026-05-05 20:58 33.44888 -97.44775 10986 ft 337 kts 101°
2026-05-05 20:58 33.44696 -97.41891 10985 ft 339 kts 95°
2026-05-05 20:58 33.44642 -97.38934 11000 ft 339 kts 93°
2026-05-05 20:58 33.44607 -97.35953 11002 ft 338 kts 94°
2026-05-05 20:59 33.44543 -97.32931 11003 ft 338 kts 95°
2026-05-05 20:59 33.44457 -97.30049 11012 ft 338 kts 96°
2026-05-05 20:59 33.44353 -97.27132 10995 ft 338 kts 96°
2026-05-05 20:59 33.44235 -97.24081 11007 ft 341 kts 96°
2026-05-05 21:00 33.44115 -97.21075 11001 ft 339 kts 96°
2026-05-05 21:00 33.43998 -97.18139 10993 ft 338 kts 96°
2026-05-05 21:00 33.43886 -97.15332 10996 ft 339 kts 96°
2026-05-05 21:00 33.43773 -97.12479 10982 ft 339 kts 96°
2026-05-05 21:01 33.43658 -97.09555 10992 ft 341 kts 96°
2026-05-05 21:01 33.43545 -97.06712 10988 ft 340 kts 96°
2026-05-05 21:01 33.43431 -97.03849 10979 ft 341 kts 96°
2026-05-05 21:01 33.43311 -97.00915 10976 ft 339 kts 96°
2026-05-05 21:02 33.43182 -96.97804 10977 ft 340 kts 96°
2026-05-05 21:02 33.43061 -96.94870 10863 ft 337 kts 96°
2026-05-05 21:02 33.42801 -96.91898 10561 ft 327 kts 105°
2026-05-05 21:02 33.41979 -96.89133 10092 ft 317 kts 123°
2026-05-05 21:03 33.40742 -96.86652 9907 ft 300 kts 134°
2026-05-05 21:03 33.39172 -96.84917 9508 ft 283 kts 157°
2026-05-05 21:03 33.37283 -96.84023 9148 ft 269 kts 173°
2026-05-05 21:03 33.35280 -96.83790 8780 ft 258 kts 191°
2026-05-05 21:04 33.33351 -96.84160 8347 ft 255 kts 197°
2026-05-05 21:04 33.31569 -96.84598 7982 ft 253 kts 196°
2026-05-05 21:04 33.29713 -96.85008 7629 ft 250 kts 195°
2026-05-05 21:04 33.27825 -96.85387 7268 ft 248 kts 194°
2026-05-05 21:05 33.25939 -96.85751 6899 ft 249 kts 193°
2026-05-05 21:05 33.24112 -96.86104 6546 ft 250 kts 193°
2026-05-05 21:05 33.22288 -96.86454 6228 ft 246 kts 193°
2026-05-05 21:05 33.20516 -96.86795 5901 ft 243 kts 193°
2026-05-05 21:06 33.18662 -96.87155 5498 ft 247 kts 192°
2026-05-05 21:06 33.16780 -96.87522 5130 ft 251 kts 193°
2026-05-05 21:06 33.14902 -96.87885 4789 ft 253 kts 193°
2026-05-05 21:06 33.13060 -96.88242 4447 ft 256 kts 193°
2026-05-05 21:07 33.11263 -96.88588 4150 ft 257 kts 192°
2026-05-05 21:07 33.09304 -96.88967 3709 ft 264 kts 192°
2026-05-05 21:07 33.07351 -96.89343 3428 ft 258 kts 193°
2026-05-05 21:07 33.05645 -96.89669 3365 ft 245 kts 192°
2026-05-05 21:08 33.03899 -96.90002 3288 ft 232 kts 193°
2026-05-05 21:08 33.02341 -96.90302 3214 ft 221 kts 193°
2026-05-05 21:08 33.00816 -96.90600 3151 ft 217 kts 192°
2026-05-05 21:08 32.99304 -96.90894 3076 ft 218 kts 193°
2026-05-05 21:09 32.97776 -96.91161 2988 ft 219 kts 188°
2026-05-05 21:09 32.96226 -96.91256 2728 ft 224 kts 184°
2026-05-05 21:09 32.94667 -96.91215 2437 ft 226 kts 179°
2026-05-05 21:09 32.93103 -96.91059 2234 ft 218 kts 181°
2026-05-05 21:10 32.91653 -96.90981 2160 ft 201 kts 180°
2026-05-05 21:10 32.90316 -96.90620 1914 ft 189 kts 159°
2026-05-05 21:10 32.89254 -96.89746 1562 ft 184 kts 141°
2026-05-05 21:10 32.88366 -96.88709 1214 ft 174 kts 139°
2026-05-05 21:11 32.87515 -96.87717 964 ft 157 kts 139°
2026-05-05 21:11 32.86720 -96.86809 751 ft 142 kts 142°
2026-05-05 21:11 32.86021 -96.86020 576 ft 137 kts 142°
2026-05-05 21:11 32.85347 -96.85242 487 ft 115 kts 135°
2026-05-05 21:12 32.84954 -96.84786 490 ft 48 kts 134°
2026-05-05 21:12 32.84813 -96.84618 491 ft 16 kts 137°
2026-05-05 21:12 32.84742 -96.84596 491 ft 9 kts 225°
2026-05-05 21:12 32.84703 -96.84656 490 ft 5 kts 237°
2026-05-05 21:13 32.84713 -96.84692 490 ft 5 kts 319°
2026-05-05 21:13 32.84743 -96.84722 490 ft 5 kts 318°
2026-05-05 21:13 32.84783 -96.84772 489 ft 8 kts 292°
2026-05-05 21:13 32.84744 -96.84810 489 ft 8 kts 148°
2026-05-05 21:14 32.84710 -96.84753 489 ft 7 kts 130°
2026-05-05 21:14 32.84676 -96.84714 490 ft 6 kts 146°
2026-05-05 21:14 32.84647 -96.84719 490 ft 4 kts 237°
2026-05-05 21:14 32.84637 -96.84741 489 ft 0 kts 243°
2026-05-05 21:15 32.84632 -96.84757 489 ft 1 kts 246°
2026-05-05 21:15 32.84631 -96.84759 489 ft 0 kts 246°